Flag for Azerbaijan Weather past 2 weeks in Sumqayit, Azerbaijan

Now
45 °F

Passing clouds.


Feels Like: 36 °F
Forecast: 41 / 45 °F
Wind: 22 mph from North

Location: Baku / Bine Airport

Current Time: Dec 23, 2014 at 3:47:59 AM

Latest Report: Dec 23, 2014 at 3:30 AM


Visibility: N/A

Pressure: 30.09 "Hg

Humidity: 76%

Dew point: 37 °F

Location of SumqayitLocation

Historic Weather in Sumqayit — Graph

°F

Sumqayit temperature yesterday

Maximum temperature yesterday: 48 °F (at 4:00 AM)
Minimum temperature yesterday: 43 °F (at 2:30 PM)
Average temperature yesterday: 46 °F

Past Weeks' High & Low Weather Summary

 TemperatureHumidityPressure
High55 °F (Dec 10, 12:30 PM)100% (Dec 10, 7:30 AM)30.45 "Hg (Dec 10, 7:30 AM)
Low41 °F (Dec 12, 5:30 AM)71% (Dec 8, 3:30 PM)29.74 "Hg (Dec 22, 3:30 PM)
Average47 °F86%30.22 "Hg
* Reported Dec 8 2:00 AM — Dec 23 2:30 AM, Sumqayit, Weather by CustomWeather, © 2014

Note: Actual official high and low records may vary slightly from our data, if they occured in-between our weather recording intervals... More about our weather records

Advertising

Sumqayit weather history for previous 24 hours

 ConditionsComfort  
Time TempWeatherWind HumidityBarometerVisibility
2:30 AM
Dec 23
45 °FPassing clouds.25 mph76%30.07 "HgN/A
2:00 AM45 °FPassing clouds.26 mph76%30.07 "HgN/A
1:30 AM45 °FPassing clouds.26 mph81%30.04 "HgN/A
1:00 AM45 °FPartly cloudy.26 mph81%30.04 "HgN/A
12:30 AM46 °FMostly cloudy.23 mph82%30.04 "HgN/A
12:00 AM46 °FLight rain. Mostly cloudy.23 mph82%30.01 "HgN/A
11:30 PM
Dec 22
46 °FMostly cloudy.21 mph82%30.01 "HgN/A
11:00 PM46 °FPartly cloudy.24 mph82%30.01 "HgN/A
10:30 PM46 °FPartly cloudy.23 mph82%29.98 "HgN/A
10:00 PM46 °FPassing clouds.25 mph82%29.98 "HgN/A
9:30 PM46 °FPassing clouds.25 mph82%29.98 "HgN/A
9:00 PM46 °FMostly cloudy.28 mph82%29.95 "HgN/A
8:30 PM45 °FPartly cloudy.18 mph87%29.95 "HgN/A
8:00 PM45 °FPartly cloudy.18 mph81%29.92 "HgN/A
7:30 PM45 °FPassing clouds.15 mph87%29.92 "HgN/A
7:00 PM43 °FPartly cloudy.9 mph87%29.89 "HgN/A
6:30 PM43 °FClear.9 mph87%29.89 "Hg10 mi
6:00 PM43 °FPartly cloudy.10 mph87%29.86 "HgN/A
5:30 PM45 °FPartly cloudy.12 mph81%29.83 "HgN/A
5:00 PM45 °FSunny.13 mph81%29.80 "Hg10 mi
4:30 PM45 °FSunny.17 mph81%29.80 "Hg10 mi
4:00 PM46 °FPartly sunny.24 mph76%29.77 "HgN/A
3:30 PM45 °FPartly sunny.24 mph81%29.74 "HgN/A
3:00 PM46 °FPartly sunny.25 mph82%29.77 "HgN/A
2:30 PM43 °FPartly sunny.36 mph87%29.77 "HgN/A
2:00 PM45 °FPartly sunny.23 mph81%29.77 "HgN/A
1:30 PM45 °FPartly sunny.25 mph81%29.77 "HgN/A
1:00 PM46 °FBroken clouds.28 mph82%29.80 "HgN/A
12:30 PM46 °FPartly sunny.33 mph82%29.80 "HgN/A
12:00 PM46 °FPartly sunny.26 mph82%29.83 "HgN/A
11:30 AM46 °FSunny.28 mph82%29.83 "Hg10 mi
11:00 AM46 °FSunny.26 mph82%29.86 "Hg10 mi
10:30 AM48 °FSunny.25 mph82%29.86 "Hg10 mi
10:00 AM46 °FBroken clouds.22 mph87%29.89 "HgN/A
9:30 AM46 °FPartly sunny.20 mph87%29.89 "HgN/A
9:00 AM48 °FPartly sunny.18 mph87%29.86 "HgN/A
8:30 AM46 °FMostly cloudy.20 mph93%29.89 "Hg5 mi
7:30 AM48 °FPassing clouds.15 mph87%29.89 "HgN/A
7:00 AM48 °FPassing clouds.14 mph87%29.89 "HgN/A
6:30 AM48 °FMostly cloudy.13 mph94%29.89 "Hg4 mi
6:00 AM48 °FMostly cloudy.14 mph94%29.92 "Hg4 mi
5:30 AM48 °FMostly cloudy.13 mph94%29.92 "Hg4 mi
5:00 AM48 °FMostly cloudy.13 mph94%29.92 "Hg4 mi
4:30 AM48 °FMostly cloudy.13 mph87%29.95 "Hg4 mi
4:00 AM48 °FMostly cloudy.13 mph87%29.95 "Hg4 mi
3:30 AM46 °FLow clouds.12 mph93%29.98 "HgN/A
3:00 AM46 °FOvercast.10 mph93%29.98 "HgN/A
Weather by CustomWeather, © 2014

See weather overviewHow to use our weather pages